{"data":{"norad_id":62895,"epoch":"2026-09-21T10:24:13.175712Z","epoch_age_seconds":87495,"freshness":"FRESH","line1":"1 62895U 25024S   26264.43348583  .00014475  00000+0  53409-3 0  9995","line2":"2 62895  43.0040 299.7985 0001581 254.1617 105.9061 15.27606007 92202","mean_motion":15.27606007,"eccentricity":0.0001581,"inclination_deg":43.004,"raan_deg":299.7985,"arg_perigee_deg":254.1617,"mean_anomaly_deg":105.9061,"bstar":0.00053409,"rev_number":9220,"period_min":94.265143852632,"perigee_km":481.88648162048,"apogee_km":484.05596404054,"semimajor_km":6861.1082228305,"source":"CELESTRAK","updated_at":"2026-09-22T09:00:49.705214Z"}}